GEFSNGP_500_meanwind_006.txt.gz
Wind_Speed
18 21 23 22 21 23 26 27 28 28 30 32 34 36 39 42 44 46 48 49 50 50 50 49 49 49 47 46 44 41 39 38 38 38 34 29 26 25 23 20 19 19 19 18
20 22 24 24 26 28 29 30 31 32 33 35 38 41 44 46 49 50 51 51 52 53 53 52 51 50 50 49 46 42 40 38 36 37 34 29 26 24 22 20 17 17 16 15
21 22 23 27 28 28 29 30 32 34 35 37 39 43 47 50 52 53 54 55 56 56 56 55 53 53 52 50 47 43 40 38 36 35 33 29 27 25 23 20 18 16 15 14
25 26 28 29 31 31 33 35 36 38 39 41 44 48 51 55 58 59 60 61 61 60 60 59 59 58 56 52 47 43 40 38 35 33 32 28 27 26 24 21 18 16 15 15
31 32 33 34 34 35 37 38 39 41 43 46 49 54 57 59 63 66 66 66 65 64 64 64 65 65 62 56 49 44 40 38 36 33 30 28 26 25 23 21 19 17 16 15
34 36 38 39 39 39 41 41 40 43 47 52 54 55 59 63 67 71 72 72 70 70 70 71 71 70 66 59 53 48 43 39 37 34 31 29 28 25 23 22 20 17 16 15
38 40 42 42 40 41 43 46 47 51 56 60 63 65 68 71 74 76 77 77 78 79 80 80 76 71 66 60 55 52 48 43 41 37 32 30 28 25 23 21 20 18 17 16
39 40 40 40 42 41 45 49 54 58 62 66 69 72 74 77 79 81 82 83 83 81 78 74 70 67 63 59 55 54 51 45 40 37 33 30 28 26 24 22 20 18 16 15
38 39 41 43 45 47 51 55 58 62 66 70 74 77 80 82 83 82 81 77 70 64 58 56 57 56 56 57 56 55 54 51 45 38 34 32 30 28 26 23 20 18 15 14
37 40 43 46 49 53 56 60 63 67 72 76 79 82 84 84 81 75 66 55 47 45 46 47 48 47 45 45 51 56 56 54 48 42 37 35 33 31 27 24 21 18 16 14
40 44 48 51 55 59 63 66 69 71 74 79 83 83 80 73 65 54 43 41 43 46 47 48 46 42 41 40 42 50 56 56 51 44 39 37 36 33 30 26 23 21 19 17
46 50 54 59 63 67 71 73 76 77 77 76 72 67 61 54 47 42 42 44 46 47 48 48 47 45 44 42 41 43 52 56 52 46 41 39 37 34 32 28 25 24 23 20
56 61 64 68 71 74 77 78 77 73 68 62 56 51 48 44 41 42 46 49 51 51 50 48 46 45 43 40 39 40 48 53 52 48 44 40 37 35 33 30 27 27 26 23
63 67 70 74 77 79 77 72 65 59 54 50 45 42 41 42 45 49 51 53 53 54 51 47 43 42 41 39 37 38 44 50 51 50 47 41 37 36 34 31 29 29 28 26
66 70 74 77 77 75 69 62 56 49 43 39 38 40 42 45 48 51 53 53 53 53 51 48 43 39 38 37 35 36 41 47 49 50 46 41 38 36 35 33 31 30 30 28
71 75 78 78 74 67 61 54 47 40 37 38 40 44 48 51 54 56 55 53 53 52 50 47 43 39 37 35 33 33 38 44 47 46 43 40 38 38 37 35 32 30 29 28
76 78 78 73 66 59 53 47 41 37 37 41 47 51 54 58 61 61 57 54 52 49 45 42 38 35 34 31 29 30 37 43 45 45 43 41 40 39 39 36 33 30 29 28
77 75 70 63 58 54 47 41 37 36 39 45 52 57 61 64 64 61 56 52 48 44 39 35 31 29 28 27 27 31 38 42 43 42 42 41 41 40 39 36 34 32 30 29
73 68 61 56 53 49 43 38 35 37 43 49 56 61 64 62 59 55 52 48 43 36 29 24 22 21 22 23 27 34 38 39 40 40 40 40 40 39 38 35 32 30 28 27
67 60 55 51 47 42 38 35 35 39 46 53 60 62 59 55 51 47 42 35 29 21 16 13 12 15 19 27 33 37 37 36 38 38 39 37 37 37 37 34 31 28 26 25
62 56 51 46 40 35 34 35 37 42 49 55 58 56 53 50 45 38 31 24 16 10 4 2 9 18 27 34 37 37 37 37 37 36 35 33 33 36 37 35 32 28 26 26
59 52 47 41 34 32 32 34 39 44 50 53 53 51 49 47 41 33 25 19 15 12 11 14 21 28 32 35 36 37 37 37 36 35 32 30 31 34 36 35 33 30 27 25
55 49 44 36 31 29 31 34 39 44 48 50 49 47 46 45 39 31 24 20 19 19 21 24 27 27 28 30 34 36 37 37 36 32 28 25 25 29 34 36 34 31 27 24
52 47 40 32 27 27 29 32 37 42 45 45 43 41 40 38 34 29 26 24 23 23 23 23 22 22 25 29 33 36 38 38 33 27 21 19 21 27 34 36 35 31 27 24
50 44 36 28 25 25 28 32 36 40 42 39 37 34 32 30 27 24 23 21 20 20 19 18 20 24 27 30 32 33 34 32 27 22 17 16 20 26 32 34 31 27 24 21
47 40 31 27 26 26 28 32 36 40 39 36 32 28 25 23 23 23 20 18 16 15 16 18 22 26 28 31 33 33 32 28 22 19 18 21 24 28 29 28 26 23 20 18
43 34 25 22 22 23 25 30 35 38 37 33 28 23 22 22 22 22 22 20 16 15 16 19 23 26 30 33 32 30 26 22 19 19 21 23 24 24 24 23 21 20 18 15

GEFSNGP_500_meanwind_012.txt.gz
Wind_Speed
20 23 24 24 24 24 26 29 32 32 32 34 36 38 41 43 45 47 49 51 53 54 56 57 57 57 57 57 58 59 58 56 51 48 46 45 45 44 42 40 39 37 34 32
22 24 25 26 27 28 29 30 33 34 36 38 40 42 44 47 50 52 54 56 58 60 62 63 62 60 59 59 60 60 60 58 55 54 52 50 49 47 46 43 40 38 34 32
25 25 26 28 29 31 32 34 36 38 39 40 42 43 47 50 53 55 57 59 62 63 63 64 64 63 63 62 62 63 64 64 63 61 59 57 54 51 47 45 42 39 35 32
29 29 32 33 34 35 37 39 39 39 40 42 46 48 50 53 55 56 57 60 63 65 66 68 70 72 73 71 70 72 73 72 71 69 65 62 58 53 49 46 43 41 36 32
32 32 34 36 38 40 41 42 43 43 46 49 53 55 56 61 66 70 73 75 77 79 81 82 84 85 86 84 82 81 79 77 75 71 67 63 59 55 51 48 45 42 37 32
33 34 35 37 39 40 44 46 47 50 53 57 60 64 65 68 72 75 78 81 83 85 86 87 88 90 89 88 86 83 79 75 70 65 60 57 55 53 51 49 46 43 39 33
31 33 35 36 39 43 46 51 55 59 63 66 70 73 75 77 79 81 82 84 85 85 85 84 83 83 83 81 78 74 68 61 54 48 45 44 45 47 48 47 46 43 39 34
31 33 36 39 43 47 53 58 63 67 72 76 79 81 83 84 83 82 79 76 73 71 68 64 62 61 60 58 54 50 44 38 35 32 31 34 36 40 44 45 44 42 40 35
34 37 42 47 51 56 61 67 71 76 79 82 84 84 82 78 73 68 63 58 54 51 47 43 42 43 43 40 37 33 30 28 27 28 29 30 33 37 41 43 41 41 40 35
40 44 48 53 58 63 68 74 78 81 82 82 79 74 67 62 57 53 48 44 41 40 38 36 35 36 36 35 33 30 29 29 30 31 31 31 32 34 40 44 40 39 39 35
46 50 53 58 64 69 75 79 81 80 77 72 65 60 57 53 48 44 41 39 40 41 41 40 40 38 36 37 37 36 36 34 34 34 33 32 31 32 38 45 43 40 38 35
50 54 59 64 69 75 79 80 78 74 65 57 53 51 48 46 45 44 44 45 46 47 48 48 47 45 43 41 41 41 40 39 37 35 34 33 30 31 37 44 44 41 39 35
54 59 64 69 73 77 77 74 68 59 52 46 43 44 45 46 48 49 51 51 53 54 54 53 52 51 49 46 44 42 40 38 37 35 33 31 29 29 37 43 44 42 40 37
58 63 67 72 76 76 74 68 57 47 42 41 42 44 47 49 51 52 53 54 56 56 55 54 53 52 49 47 44 41 39 37 35 32 31 29 27 28 35 40 43 42 40 38
60 65 71 76 77 74 69 59 46 39 38 40 44 48 50 52 53 55 56 56 55 54 52 51 49 46 44 42 40 38 36 34 32 30 29 27 26 27 34 39 43 43 41 37
63 68 74 77 78 72 62 49 39 37 40 43 47 50 52 53 54 54 55 55 53 50 47 43 39 36 34 33 33 32 32 32 31 29 27 26 26 29 36 41 44 42 41 37
67 71 76 79 77 68 52 41 37 39 43 47 50 52 52 52 52 52 52 52 50 46 41 36 30 25 23 23 24 26 28 29 29 27 26 26 27 33 38 41 43 42 39 35
70 74 78 77 72 61 44 36 36 40 46 50 52 52 52 51 50 50 49 50 47 43 37 31 24 18 14 13 16 21 24 25 26 26 27 28 32 37 41 43 41 41 38 35
71 75 76 72 66 54 40 35 37 42 48 51 52 51 50 49 48 47 45 46 44 41 36 29 22 14 6 5 10 16 21 23 25 27 29 32 36 40 42 42 42 40 37 34
71 74 74 68 60 47 36 36 39 44 48 51 50 49 48 47 45 43 42 42 41 39 37 32 25 16 9 5 10 15 19 24 28 31 34 37 40 41 41 40 40 38 34 31
71 74 72 66 54 41 36 37 40 44 48 49 49 48 46 45 43 40 39 38 38 37 34 33 29 21 13 10 13 19 26 32 36 38 39 41 41 40 38 37 36 34 32 29
70 72 70 64 49 36 34 36 40 44 46 47 46 45 44 43 41 38 36 37 37 36 33 31 27 22 17 17 23 30 37 40 41 43 43 41 39 37 35 33 32 31 29 26
69 70 68 61 46 34 33 36 40 42 44 44 44 43 42 43 41 39 37 37 36 34 31 27 23 21 24 28 35 39 41 42 42 41 39 37 34 32 31 30 30 29 26 24
67 68 66 58 45 34 32 35 38 40 40 40 41 41 41 42 40 37 34 33 32 29 26 23 23 26 31 35 39 39 39 38 36 34 32 30 28 27 26 27 28 27 25 23
65 65 63 56 42 32 31 34 37 38 37 37 37 37 38 39 38 34 31 29 26 24 22 21 24 28 32 35 35 35 33 31 28 26 24 23 22 23 24 26 27 26 24 22
63 63 60 54 43 33 32 34 37 37 36 34 33 33 33 34 34 31 28 25 22 21 21 22 25 28 30 32 31 30 28 26 24 22 20 20 20 22 24 24 25 25 23 21
62 61 56 49 41 33 31 33 35 36 35 33 31 30 30 31 30 28 25 22 19 18 19 21 24 26 27 27 27 25 23 21 19 17 15 16 18 20 22 23 23 23 21 19

GEFSNGP_500_meanwind_018.txt.gz
Wind_Speed
21 22 24 25 26 28 30 31 32 34 37 39 41 42 42 43 45 47 49 52 54 56 58 60 62 64 66 67 68 70 71 72 73 72 72 71 68 64 60 55 50 44 41 38
22 23 26 27 28 30 30 32 34 36 39 41 44 46 48 50 53 56 58 60 63 65 67 68 70 72 74 75 75 75 75 76 76 74 73 73 72 68 63 58 52 48 44 42
22 25 27 28 28 30 32 34 36 40 44 48 50 53 56 59 63 66 68 71 73 75 76 77 79 80 82 83 84 84 83 83 82 80 77 74 71 67 64 60 56 52 48 47
22 25 26 28 30 32 35 38 42 46 50 53 57 61 64 69 73 76 78 80 80 79 78 76 75 75 76 77 80 83 86 88 89 89 86 84 82 79 75 71 66 61 57 53
23 26 31 30 34 37 40 44 47 51 56 60 64 68 72 76 79 80 78 75 70 66 62 59 56 56 56 57 60 64 68 71 74 77 78 79 79 79 77 75 71 65 60 56
27 29 32 37 39 42 46 51 55 59 64 68 72 76 78 78 76 69 61 54 49 45 43 43 43 44 45 44 44 45 47 50 52 53 54 57 60 63 65 66 65 62 58 53
29 32 35 38 42 45 50 55 59 64 69 74 78 79 76 67 56 48 42 39 39 40 41 42 43 44 43 42 40 38 38 38 38 38 38 40 42 45 49 53 55 55 54 51
32 35 40 43 47 50 55 60 65 69 74 77 76 69 58 47 41 38 39 41 43 44 45 46 47 47 46 45 44 41 39 37 34 32 31 30 30 32 35 39 44 49 51 51
35 38 42 47 51 55 59 64 68 73 76 75 66 52 42 38 39 41 43 45 47 48 48 48 48 49 48 46 46 43 41 38 36 33 30 28 27 28 29 31 35 41 47 50
38 41 44 49 53 57 62 68 73 76 73 64 51 41 38 40 43 45 46 48 49 49 49 49 49 49 49 48 47 45 43 40 37 34 30 27 25 24 23 24 25 29 37 44
41 44 48 52 57 62 67 72 75 73 63 51 42 39 41 44 47 48 49 50 50 50 49 48 48 48 48 48 47 45 42 40 38 34 30 26 24 23 21 21 20 22 27 34
44 48 52 56 60 65 71 75 73 65 51 42 41 42 45 48 49 50 50 50 50 48 47 46 46 46 47 46 44 41 39 38 36 34 31 28 25 24 23 22 21 21 23 27
47 51 55 59 63 69 74 74 67 55 44 40 42 45 48 50 51 52 52 52 51 48 46 46 46 45 45 42 39 36 35 34 33 33 32 30 28 27 26 25 23 22 23 25
50 54 57 60 65 71 74 72 61 48 42 42 45 47 49 51 53 54 53 52 51 48 46 45 44 42 41 38 35 31 29 29 30 31 32 31 29 28 27 26 24 23 24 26
51 55 58 62 67 72 74 68 55 44 42 44 46 48 50 53 55 54 53 51 49 47 44 44 42 40 37 33 28 24 21 22 25 27 29 30 29 28 26 25 24 22 24 28
51 56 59 63 68 73 73 65 52 43 43 45 47 49 51 54 55 53 51 49 47 45 42 41 39 36 31 25 20 15 12 16 21 24 27 28 28 27 26 24 24 23 25 31
52 56 59 63 68 73 72 62 50 44 45 47 49 50 52 54 52 50 49 47 45 42 40 38 34 31 25 19 12 6 8 14 19 23 26 27 27 26 24 24 24 25 30 35
53 56 60 64 69 73 71 59 47 44 46 48 50 51 52 52 51 49 49 46 44 42 38 35 30 26 21 15 7 1 9 14 20 24 26 26 26 24 24 24 26 29 34 37
52 56 59 63 68 72 69 58 46 44 46 48 50 51 51 51 49 48 47 45 44 42 38 33 28 22 18 14 10 10 13 18 22 25 27 27 25 24 25 28 30 33 37 39
52 55 58 62 67 71 69 58 47 43 45 48 49 50 49 48 46 46 46 45 44 42 37 32 27 22 17 15 16 17 20 24 27 28 27 26 26 27 30 32 34 36 38 40
51 54 57 61 65 69 67 58 47 42 44 47 48 48 46 44 43 44 44 45 44 42 37 32 28 24 21 21 23 24 26 28 29 28 29 30 31 32 33 36 37 37 39 38
49 53 56 59 63 67 66 58 47 41 42 44 45 44 43 41 40 40 41 42 42 40 38 35 32 30 29 29 29 31 32 33 34 34 34 34 35 36 37 37 37 37 37 35
48 51 54 57 61 65 65 57 46 39 40 42 42 40 39 38 37 38 38 38 39 40 39 38 37 36 36 36 37 38 38 38 37 36 36 36 36 35 35 35 34 34 33 31
47 50 53 56 59 62 63 57 44 37 36 39 39 37 34 33 32 33 33 33 34 35 36 37 37 37 37 37 37 37 37 36 36 35 35 34 33 33 32 31 30 30 28 27
46 48 51 54 56 60 62 58 45 34 32 34 34 32 30 29 28 28 28 29 29 30 31 32 33 33 33 33 33 34 33 32 31 31 30 30 30 29 28 27 26 25 24 23
45 47 50 52 54 57 60 58 48 34 29 29 29 27 26 24 23 22 22 23 24 24 25 26 26 27 27 27 27 27 27 26 26 25 25 25 25 24 24 23 22 21 21 21
44 46 48 51 52 54 57 56 49 36 28 25 25 24 23 21 19 17 17 17 18 19 20 21 21 22 22 21 20 20 19 19 19 19 20 20 21 21 20 20 20 20 19 19

GEFSNGP_500_meanwind_024.txt.gz
Wind_Speed
15 14 15 18 20 22 26 30 34 37 41 46 49 51 54 57 60 63 66 69 71 73 74 76 77 76 75 73 72 72 72 73 74 75 77 78 78 78 77 75 73 71 68 65
16 16 17 20 21 25 30 35 39 42 45 49 53 56 59 62 65 68 71 73 75 75 74 71 67 62 57 55 53 51 51 51 53 56 60 65 71 76 78 80 80 78 75 72
18 18 20 24 27 31 35 39 44 46 49 52 55 59 62 65 68 72 73 73 69 62 55 49 46 44 43 43 42 42 41 41 41 41 42 43 47 53 60 67 73 77 79 78
21 22 23 27 29 34 38 42 46 48 51 55 58 62 65 68 71 71 67 59 51 46 43 43 43 43 44 44 44 44 43 42 42 41 40 39 39 40 43 48 54 62 69 74
23 23 29 32 34 38 42 45 50 52 56 59 63 66 67 67 65 59 52 47 45 45 45 45 45 46 47 48 47 47 46 46 45 43 42 41 39 37 37 38 40 45 51 59
26 29 32 35 40 43 47 49 54 57 60 63 66 69 66 60 54 49 47 47 48 48 48 48 49 50 51 50 50 49 48 47 45 45 44 43 41 40 39 39 37 36 39 44
29 31 37 39 43 45 48 52 54 57 61 65 68 66 61 54 49 47 48 49 50 50 51 52 53 53 53 52 51 50 49 48 46 45 43 42 40 39 38 37 36 34 33 35
32 35 39 42 45 48 52 55 58 61 65 67 65 59 54 50 49 49 50 50 51 52 53 54 54 54 53 52 50 49 48 46 45 43 42 41 39 37 36 35 33 31 31 30
34 36 40 44 48 51 55 58 60 64 66 67 62 55 50 49 49 50 51 52 54 55 55 55 55 54 53 51 50 48 47 44 42 41 40 39 37 35 33 32 31 30 28 27
35 39 42 47 50 53 56 59 62 65 67 64 57 52 50 48 49 50 52 54 55 56 56 55 54 53 52 51 49 46 43 41 41 40 38 36 33 32 31 30 29 28 27 26
39 42 44 47 50 54 56 59 63 65 65 60 54 51 49 49 50 52 55 56 57 57 57 56 54 52 50 47 44 42 40 37 37 35 33 31 29 29 28 27 26 25 24 24
41 44 46 48 52 55 57 60 63 65 63 56 51 49 48 50 52 55 57 58 58 57 56 55 52 48 45 41 38 36 34 33 31 30 28 27 26 24 24 23 22 21 20 21
42 44 46 48 52 55 57 60 63 64 61 54 49 47 49 51 53 55 57 58 58 57 55 52 47 43 38 34 31 29 27 26 25 24 22 20 19 19 18 18 17 16 16 16
43 45 46 48 51 55 58 60 62 63 58 52 47 47 49 51 53 55 57 57 58 56 53 50 45 39 34 29 25 22 20 19 17 15 14 14 15 15 15 15 14 12 11 12
44 45 46 48 51 54 57 59 61 61 57 49 45 47 48 50 52 54 56 57 58 56 53 49 42 36 30 25 20 17 13 10 8 7 9 13 14 15 15 14 12 11 10 11
42 44 45 47 50 53 56 58 60 61 56 48 44 45 47 49 51 53 55 57 58 56 53 48 42 36 28 22 18 13 8 3 3 7 11 13 15 15 15 13 11 9 9 11
42 43 45 47 49 53 55 58 60 60 55 46 43 44 45 47 49 52 55 56 56 55 52 47 41 35 30 24 19 16 13 11 11 12 13 14 14 14 13 11 11 10 10 11
42 44 46 48 50 53 55 56 58 59 54 46 41 42 43 44 46 50 53 55 55 54 51 46 41 36 32 28 24 22 20 18 17 16 14 13 13 14 13 11 11 10 11 14
41 42 44 47 50 52 54 55 56 57 54 45 40 39 40 42 43 46 49 51 52 52 50 46 41 37 33 30 27 24 22 20 19 17 15 15 14 13 13 12 12 13 16 19
40 42 44 46 49 51 52 53 54 55 53 46 39 37 37 38 39 42 45 47 48 49 48 45 42 38 34 32 29 27 25 22 20 19 18 17 16 15 15 16 17 18 20 22
39 41 43 45 47 50 51 52 52 54 53 47 39 35 33 34 35 37 39 41 42 43 43 42 41 39 36 33 30 27 25 24 22 20 19 18 18 17 17 18 19 21 24 27
39 41 42 44 46 48 49 50 51 52 52 47 40 34 31 30 30 32 34 35 37 37 38 37 37 37 36 34 31 29 27 26 24 23 21 20 20 20 21 21 23 25 28 29
39 40 42 43 45 46 47 48 49 50 51 49 41 34 30 28 28 28 28 30 31 32 32 32 32 32 32 32 32 32 30 29 28 27 26 25 24 24 25 26 27 28 29 29
40 41 42 43 44 45 45 45 46 47 49 49 44 36 30 26 25 25 25 25 26 26 27 27 27 26 27 28 28 29 28 28 28 28 28 28 28 28 28 28 28 28 27 26
40 41 42 43 44 44 44 43 43 44 46 48 44 38 31 26 22 21 20 20 21 21 22 22 22 21 21 22 23 23 23 23 23 24 25 25 25 24 24 24 25 24 24 23
41 41 42 42 43 43 42 41 41 42 44 45 44 38 31 25 21 19 18 16 16 17 17 18 17 17 17 16 17 17 18 18 19 19 19 19 19 19 19 19 20 20 20 19
41 41 41 42 43 43 41 40 40 40 41 43 43 39 32 26 21 18 16 14 13 13 13 13 13 13 12 12 11 11 11 11 12 13 13 13 13 14 14 15 15 16 16 15

GEFSNGP_500_meanwind_030.txt.gz
Wind_Speed
14 15 16 16 17 20 23 27 30 33 36 40 42 46 49 52 55 58 61 63 63 61 58 56 55 54 54 54 54 53 53 51 49 47 44 41 39 39 39 41 45 52 59 65
15 17 17 16 19 23 26 28 30 33 37 40 44 47 50 53 57 59 60 60 58 56 54 53 53 53 53 53 53 53 53 52 51 50 47 45 43 42 41 40 39 40 44 50
16 18 19 19 22 26 29 31 34 38 41 44 47 49 53 57 60 61 60 57 54 53 52 52 52 53 54 54 54 54 54 53 52 52 50 48 47 45 42 41 39 38 37 39
20 22 22 24 27 30 34 36 38 41 45 48 51 53 55 58 60 58 55 53 51 51 52 53 54 56 56 57 57 56 55 55 54 53 51 50 49 48 46 44 42 41 39 37
26 27 28 29 31 34 37 39 42 44 47 49 52 52 53 57 57 54 52 51 51 53 55 56 58 59 59 59 58 57 55 54 53 52 50 49 48 46 45 44 43 42 40 38
27 28 30 32 34 37 39 41 44 46 49 51 55 56 57 57 55 51 50 51 52 55 57 58 60 61 61 59 58 56 54 52 51 51 49 47 45 44 42 42 41 41 39 38
26 28 31 34 36 38 39 43 45 49 52 56 57 59 59 56 51 49 49 51 53 56 58 60 61 61 60 58 56 54 52 49 48 48 46 45 43 41 39 39 38 38 38 37
28 30 32 35 37 39 43 45 48 51 54 55 56 58 57 53 50 48 49 52 55 57 59 60 61 60 58 56 52 48 45 43 42 41 40 40 38 37 37 36 35 35 35 35
28 30 33 35 39 43 45 47 49 51 53 55 56 57 55 51 48 48 50 53 56 59 60 60 59 58 56 52 46 42 38 35 33 31 31 32 32 32 32 32 32 32 32 31
27 29 33 36 39 42 44 46 48 51 53 54 55 56 54 50 47 48 51 54 57 59 60 58 56 55 53 48 43 38 32 27 24 22 21 22 24 26 26 26 27 28 29 29
26 29 32 35 37 40 43 45 47 49 52 54 55 55 53 49 47 47 51 54 57 59 59 57 55 53 50 45 40 34 27 21 17 14 13 13 15 17 19 20 22 23 24 26
28 30 32 35 37 40 43 46 48 50 51 53 55 55 53 48 46 47 50 54 56 58 58 56 54 52 49 46 40 33 26 20 14 8 5 6 8 11 13 15 17 18 20 22
29 31 33 36 38 41 44 46 48 51 52 53 54 55 52 48 45 46 49 52 55 56 56 55 52 50 48 45 39 34 28 22 16 10 6 2 2 5 7 10 12 14 16 17
29 31 33 35 38 41 43 46 48 50 52 53 53 53 51 47 45 45 47 50 52 54 54 53 51 48 46 43 39 34 29 24 20 16 12 8 6 4 5 7 9 11 12 14
31 32 33 35 38 41 43 46 47 49 50 51 52 52 51 47 44 44 45 48 50 51 51 51 50 47 45 42 38 34 30 26 22 19 16 14 11 9 7 5 5 6 8 10
32 33 34 36 38 41 43 45 47 49 50 51 51 52 51 47 44 43 43 44 46 48 49 49 48 46 43 41 38 35 31 27 23 20 18 16 14 11 9 8 6 5 5 7
33 33 34 35 38 40 43 46 47 49 51 51 51 51 50 47 43 41 41 41 43 44 46 47 47 45 43 40 37 35 31 28 24 21 18 16 14 12 10 9 8 7 7 8
32 33 35 36 38 41 43 45 47 49 50 50 50 50 50 47 42 39 38 38 39 40 42 43 44 43 41 39 36 33 31 28 25 22 19 17 15 13 12 11 11 10 10 12
32 34 36 37 39 41 44 46 47 49 50 50 49 49 49 47 43 39 36 35 36 37 38 39 40 40 40 39 36 33 30 28 25 24 22 20 19 17 16 16 15 15 16 18
33 35 36 38 40 42 44 45 47 48 49 49 48 47 47 46 42 38 35 33 33 33 34 36 36 36 37 37 36 34 31 28 26 24 22 21 20 19 19 18 18 19 20 21
34 36 37 39 41 43 44 45 46 47 48 49 47 45 45 45 43 38 33 31 30 30 31 31 32 33 33 33 33 33 32 29 26 24 23 22 21 21 21 21 21 22 24 26
36 38 39 41 42 43 44 45 46 47 47 47 46 44 43 43 42 38 33 30 28 27 27 28 28 29 30 30 31 31 30 29 26 25 24 23 22 22 22 23 24 24 25 27
39 40 41 42 43 44 44 45 45 46 46 46 44 42 41 40 40 38 33 29 26 24 24 24 24 24 25 26 27 27 28 27 26 25 24 23 23 23 24 24 25 26 27 28
43 43 43 43 44 44 44 44 44 45 45 44 43 41 39 38 39 38 35 29 25 22 21 21 21 21 20 21 22 23 23 24 24 24 24 23 23 22 23 24 24 25 26 26
45 45 45 44 44 44 43 43 43 43 43 42 41 39 37 36 36 36 35 30 25 22 19 18 18 17 16 16 17 17 18 19 19 20 21 20 21 21 20 21 21 22 22 23
44 45 44 43 43 43 42 41 41 41 40 40 39 38 36 34 34 35 34 31 26 21 18 16 15 14 14 13 13 12 12 13 14 15 16 16 17 17 17 17 18 18 19 19
44 44 44 44 43 42 41 40 39 38 38 38 37 36 34 32 32 32 33 31 27 22 18 16 14 13 12 11 9 9 7 7 9 10 10 11 11 12 13 13 14 15 16 16

GEFSNGP_500_meanwind_036.txt.gz
Wind_Speed
11 11 13 15 17 20 22 24 26 28 30 32 35 37 40 43 44 46 48 50 50 50 48 47 48 50 53 56 58 60 60 61 62 62 62 61 59 56 54 53 52 50 50 51
12 14 16 18 20 22 23 25 26 29 31 34 37 40 43 45 46 48 49 50 49 48 47 47 50 52 56 58 60 61 62 63 63 63 62 60 58 55 53 52 52 51 49 49
14 15 17 19 21 23 24 26 29 32 34 36 38 42 45 46 47 49 50 50 49 47 47 49 52 55 58 60 62 63 64 63 62 61 59 55 52 50 49 48 49 49 48 48
15 17 18 21 22 24 25 28 30 33 36 38 40 42 46 49 49 50 51 50 48 47 48 51 54 57 59 61 62 63 63 61 59 57 54 50 46 45 43 43 44 46 47 47
18 19 20 23 24 26 28 29 32 35 38 40 42 42 45 47 48 49 51 50 48 48 50 52 55 57 59 60 62 62 60 58 56 53 48 43 40 38 38 38 39 42 43 45
20 22 24 25 26 28 30 32 34 37 40 43 45 46 47 48 49 50 51 50 49 50 51 53 55 57 58 60 60 59 57 54 51 47 41 37 33 30 31 33 35 37 39 41
21 22 23 25 27 30 32 34 36 38 41 44 47 50 51 51 52 52 52 50 49 50 51 53 54 56 57 58 57 56 53 50 47 42 36 30 25 22 22 25 29 32 34 36
21 22 24 25 28 30 32 34 36 38 41 44 47 49 51 51 52 52 51 49 49 49 50 52 53 55 56 55 55 53 50 47 43 38 31 25 20 16 15 18 22 26 30 32
22 23 24 26 28 30 32 34 36 39 41 44 47 49 51 52 52 52 51 49 48 48 49 50 52 53 54 53 52 50 48 45 40 35 29 24 19 13 10 13 17 20 24 27
22 23 25 27 29 30 32 34 37 40 42 45 47 50 52 52 52 52 51 49 47 47 47 48 50 52 52 52 51 48 45 42 39 35 30 25 19 12 6 7 12 16 19 23
22 24 26 28 30 31 33 35 37 40 43 45 48 50 52 52 51 51 51 48 46 46 47 47 48 50 50 50 49 46 42 40 38 34 31 27 21 15 8 3 5 10 15 19
24 26 27 29 31 32 33 35 38 40 43 46 48 49 51 52 51 51 51 48 46 45 45 45 47 48 49 48 47 44 40 37 36 34 31 27 23 18 13 7 1 4 9 14
25 27 28 30 31 32 34 36 38 40 43 45 47 49 51 52 51 50 50 48 45 43 44 44 45 46 47 46 45 42 38 36 33 32 30 27 24 20 15 10 5 0 5 9
26 28 29 30 32 33 35 36 38 41 43 46 47 49 50 51 51 50 49 47 44 42 42 42 43 44 45 45 43 41 38 35 33 30 29 27 24 21 17 12 8 3 2 6
27 28 30 31 33 34 36 37 39 42 44 46 47 48 49 50 49 48 48 47 44 42 40 40 41 42 43 43 42 40 36 34 33 30 28 26 23 21 18 14 10 6 1 3
29 30 31 33 34 36 37 39 40 42 45 46 47 47 48 48 49 48 47 46 43 40 38 38 39 40 41 40 40 39 36 34 32 30 28 26 23 21 19 15 12 8 4 1
30 31 33 34 36 37 39 40 41 43 45 46 47 46 46 46 47 46 45 45 43 39 37 36 36 37 38 39 38 38 36 33 31 30 28 26 25 22 19 17 15 11 7 5
33 34 35 37 38 39 40 41 42 44 46 47 47 46 46 45 45 44 43 42 41 39 36 34 33 34 35 36 36 36 35 34 31 29 28 27 26 23 21 19 16 14 12 9
36 37 37 38 39 39 40 42 43 44 45 46 47 46 45 44 44 43 42 40 39 36 33 31 30 31 32 33 33 33 33 32 31 29 27 27 26 24 23 21 18 16 15 14
39 39 39 39 39 40 40 42 43 44 45 45 46 45 44 43 42 41 40 39 38 35 32 29 28 28 28 29 30 31 31 31 30 29 28 26 25 24 24 23 21 20 19 18
40 40 40 40 40 39 40 41 42 43 45 45 45 44 43 42 41 40 38 37 36 35 32 28 26 24 24 25 26 27 28 28 28 27 27 26 26 24 23 23 22 21 21 22
41 41 41 40 39 38 38 39 41 43 45 45 44 43 42 40 40 39 37 35 33 32 30 27 24 22 21 21 22 23 25 25 26 26 25 25 25 25 23 23 24 24 23 24
43 42 40 38 37 37 38 39 41 43 45 45 44 42 41 40 38 36 35 33 32 31 29 26 22 20 18 18 18 19 20 22 22 22 23 23 23 24 24 24 24 25 25 25
44 42 39 37 36 37 38 39 41 44 45 44 42 41 40 39 38 36 34 32 30 29 28 25 22 18 16 15 15 15 15 17 18 19 19 20 20 21 21 22 22 23 23 23
45 43 40 38 38 39 40 41 42 44 44 43 41 40 39 38 36 35 33 31 29 27 26 24 21 17 14 13 12 11 11 12 13 15 15 16 17 17 18 18 19 19 20 20
46 43 41 40 40 40 41 42 43 43 43 41 39 38 38 37 35 34 32 30 27 26 25 23 21 17 13 11 10 9 8 8 9 10 11 12 12 13 14 15 16 16 16 17
47 44 42 41 41 41 43 43 42 41 40 38 37 36 36 35 34 33 31 29 27 24 23 22 20 17 13 11 9 8 6 5 5 6 7 7 8 9 10 11 11 12 13 13

GEFSNGP_500_meanwind_042.txt.gz
Wind_Speed
8 10 12 13 13 14 15 16 18 20 22 25 28 31 34 36 38 41 42 44 45 46 45 44 44 44 43 43 43 44 46 48 49 51 53 54 55 55 56 56 56 55 56 58
11 13 15 15 15 16 17 18 19 22 24 27 29 32 35 37 40 42 44 45 46 46 45 44 44 43 42 43 43 45 46 48 50 52 52 53 54 54 52 51 50 51 51 53
14 16 16 17 16 17 19 20 22 24 26 29 30 34 37 39 41 44 45 46 46 46 46 45 44 43 43 43 44 46 48 50 51 52 51 52 51 50 48 46 45 44 45 47
16 17 18 17 17 18 19 21 23 25 28 29 31 35 37 40 42 44 46 47 47 47 46 45 44 43 43 44 45 46 48 50 51 50 49 49 49 47 44 41 38 37 38 39
18 19 18 17 17 18 20 21 24 26 28 30 32 36 39 41 44 47 48 49 49 48 47 46 44 44 44 44 45 46 48 49 50 49 48 47 46 43 39 36 32 30 29 31
19 19 18 19 18 20 22 23 25 27 29 31 33 36 39 43 46 48 50 50 50 49 48 46 44 44 44 44 45 46 48 49 49 47 46 45 43 40 37 32 28 24 22 23
19 19 20 20 21 22 24 26 27 29 31 33 35 38 41 44 47 49 50 50 50 49 48 47 44 43 44 44 45 46 47 47 47 45 44 44 41 38 35 29 24 19 16 16
18 19 21 21 22 23 24 26 28 30 32 34 37 39 42 45 48 50 50 50 49 48 48 46 44 43 44 44 45 46 46 46 45 43 43 41 40 37 33 28 22 16 11 10
20 21 22 22 23 24 25 27 28 30 32 35 38 41 44 46 49 50 51 50 49 48 47 46 44 43 43 44 44 45 45 44 43 42 41 39 37 35 32 26 20 15 9 5
21 21 22 23 24 25 26 27 29 31 33 36 39 42 45 47 49 50 50 49 48 47 46 45 43 43 42 43 43 44 44 43 42 40 39 37 35 33 30 26 20 14 9 4
21 21 22 23 24 25 26 28 30 32 34 37 40 44 46 49 50 50 50 49 48 47 46 44 42 42 41 41 42 43 43 42 41 39 38 35 33 31 28 25 20 14 8 3
21 22 22 23 24 26 27 29 31 33 36 39 42 45 48 49 49 50 50 48 48 47 45 43 42 41 40 40 41 42 42 41 40 38 36 34 32 29 26 24 20 15 9 4
21 21 22 23 25 27 29 31 33 35 38 41 44 46 48 48 49 49 49 48 47 45 44 42 41 40 39 39 40 40 40 40 39 37 35 33 30 28 25 22 19 15 10 6
21 22 23 25 26 28 31 33 35 38 40 43 45 46 46 47 47 48 48 48 46 44 43 41 40 39 38 37 38 38 39 38 37 36 35 32 29 26 24 21 18 14 10 6
23 24 25 27 29 31 33 36 38 40 42 44 45 45 44 45 46 48 48 47 46 44 42 40 39 38 36 35 36 36 37 37 36 35 34 32 29 25 23 21 18 14 10 6
26 27 28 30 31 34 36 38 40 42 43 44 45 44 43 43 45 47 48 47 45 43 42 39 37 36 35 33 34 34 35 35 35 34 34 32 28 25 23 20 18 13 9 5
29 30 32 33 34 36 38 40 41 42 43 44 43 42 41 42 44 46 47 46 45 43 41 39 36 35 34 32 32 32 33 34 34 34 33 32 29 26 24 21 18 15 10 5
34 35 35 36 37 38 40 40 41 41 42 42 41 40 40 41 43 44 45 45 44 43 41 39 36 34 33 31 29 29 31 31 32 32 31 31 29 27 25 21 19 17 12 7
38 38 38 38 39 39 39 39 40 40 41 41 40 39 40 40 41 42 44 43 42 41 40 38 35 33 31 29 27 27 28 29 30 30 30 29 28 27 24 22 20 18 15 11
41 40 39 39 40 39 39 38 39 39 40 40 39 39 39 40 40 41 42 41 40 40 38 36 33 31 30 28 26 24 25 26 27 27 28 28 27 26 24 23 22 21 20 17
43 42 41 40 39 39 38 38 39 39 40 39 38 38 39 39 39 39 39 39 39 39 37 35 32 30 28 26 24 22 22 22 24 24 25 25 25 25 24 24 23 22 21 20
44 43 42 41 40 39 39 38 38 39 39 39 38 38 38 38 38 38 37 37 37 37 36 34 32 29 27 24 22 20 19 19 20 21 22 23 23 22 22 22 22 22 21 20
46 44 43 43 41 41 39 37 37 39 39 38 37 37 37 36 36 35 35 35 36 35 34 32 30 28 25 23 20 18 17 16 17 17 18 19 20 20 20 20 21 21 20 20
48 47 46 45 43 41 39 37 38 39 39 38 38 38 36 35 34 33 33 33 34 34 33 31 29 27 24 21 19 17 15 14 14 14 15 15 16 17 17 17 18 19 19 19
52 50 49 47 44 41 40 39 40 40 39 38 37 36 35 33 32 32 32 32 32 32 31 30 28 25 23 20 17 15 13 11 11 11 11 12 13 14 14 15 15 16 16 16
54 53 51 48 45 42 41 41 41 39 37 37 37 36 34 33 31 30 30 30 30 30 29 29 27 24 22 19 16 14 12 9 8 8 8 8 9 10 11 12 12 13 14 14
56 54 53 50 47 45 43 42 41 39 37 36 35 35 34 33 30 29 29 29 29 28 28 27 26 23 21 18 16 13 11 9 7 6 6 5 5 6 7 8 9 9 10 11

GEFSNGP_500_meanwind_048.txt.gz
Wind_Speed
9 10 12 13 14 15 15 15 16 18 21 25 26 27 29 30 32 34 36 39 41 43 44 45 45 45 45 45 45 44 44 43 43 43 44 44 44 45 46 47 47 47 48 48
9 10 13 13 15 17 18 18 18 20 23 26 27 29 29 30 33 35 37 40 42 44 45 45 45 46 46 46 45 44 44 43 43 43 44 44 45 46 46 46 46 46 46 45
8 8 11 14 16 19 20 20 22 24 25 27 28 29 29 30 33 35 38 40 42 44 46 46 46 46 47 46 45 44 44 43 44 43 43 44 45 45 45 45 44 44 44 42
10 8 10 14 18 21 22 22 23 24 26 28 29 31 31 31 34 36 39 42 44 45 46 47 47 47 47 46 45 44 44 43 44 43 44 44 45 44 44 43 42 42 41 39
13 10 11 16 22 21 22 24 22 23 25 26 28 32 34 34 37 39 42 43 44 46 47 47 47 47 47 46 45 44 43 43 43 43 44 44 44 43 42 41 40 40 38 36
15 14 13 17 21 21 24 27 24 25 26 27 29 30 34 36 38 40 42 43 44 45 47 47 47 47 47 46 45 44 43 43 43 44 44 43 43 42 40 39 39 37 36 33
19 19 18 24 23 24 26 27 27 28 28 29 30 31 33 35 38 41 43 43 44 45 47 48 48 47 47 46 44 43 43 43 43 44 44 42 41 40 39 38 37 36 33 31
21 20 23 27 27 27 26 26 27 27 28 28 29 31 34 37 39 42 43 43 44 45 47 48 48 47 46 45 44 43 43 43 43 43 43 41 40 39 37 36 35 33 31 29
21 23 27 28 28 28 27 26 26 27 27 28 30 32 35 38 40 42 43 43 43 45 46 48 48 48 47 45 44 42 42 42 42 42 41 40 39 37 35 34 32 31 30 27
23 23 26 27 28 28 27 26 26 27 27 29 31 34 36 38 40 42 42 42 43 44 46 47 48 48 47 45 43 42 41 41 41 41 40 39 38 36 35 33 31 31 29 26
26 26 26 26 27 27 27 27 27 27 28 30 33 35 37 39 40 41 41 42 43 44 46 47 48 48 47 45 43 41 40 40 40 40 40 38 37 36 35 32 31 29 27 24
26 27 27 27 27 27 27 27 27 28 30 33 35 37 38 40 40 41 41 42 43 44 45 47 48 47 46 45 43 41 40 39 39 39 39 38 37 35 34 32 30 28 26 23
27 26 26 27 28 27 28 29 30 31 32 34 36 38 39 40 40 41 41 42 43 44 45 46 47 47 46 44 42 40 39 38 38 38 39 37 36 35 33 30 28 27 25 22
28 27 26 27 28 29 30 31 33 34 35 37 38 39 40 40 41 41 42 42 43 43 44 45 46 46 45 44 41 39 38 37 37 38 37 37 37 36 33 30 27 25 23 21
29 29 29 29 29 31 32 34 35 37 39 40 40 40 41 41 41 42 42 42 43 43 43 45 45 45 44 43 40 38 37 36 36 37 36 35 35 35 33 30 28 25 22 20
31 32 32 33 34 34 36 37 38 40 41 42 42 42 42 42 42 43 43 43 43 42 43 43 44 43 43 42 40 37 36 35 34 35 34 34 33 33 32 31 29 26 23 19
35 36 36 37 38 39 39 40 41 42 43 43 44 43 43 43 43 43 43 43 43 42 42 42 42 42 42 41 39 36 34 33 33 33 32 32 32 32 31 30 30 27 23 19
38 39 40 41 42 42 43 43 44 44 44 44 45 44 44 43 43 43 43 42 42 41 41 41 40 40 40 39 37 35 33 31 30 30 31 30 30 30 30 30 29 27 24 20
42 43 44 44 45 45 46 46 45 46 46 45 45 45 45 44 44 43 43 41 40 40 40 39 39 38 38 38 36 34 31 29 28 28 28 28 28 28 28 28 27 26 24 20
45 46 47 47 48 48 49 48 48 48 47 46 45 45 45 45 44 43 42 42 41 40 39 38 37 37 37 36 34 32 29 27 26 25 25 25 26 26 25 26 25 24 23 20
48 49 49 50 51 51 51 51 50 50 49 48 47 46 46 45 44 43 42 42 40 38 37 36 35 34 34 34 33 30 28 25 24 23 22 22 22 23 22 22 23 23 22 20
52 52 52 52 53 53 52 52 52 51 50 49 48 47 47 46 44 43 41 39 37 36 35 34 33 33 32 32 31 28 26 23 21 21 20 19 19 20 20 19 20 20 20 20
56 56 56 56 56 55 54 54 54 53 52 51 50 50 49 47 44 42 41 39 36 35 34 33 32 31 30 30 29 27 24 21 19 18 17 16 16 16 17 16 16 17 17 18
59 59 59 59 59 58 57 56 55 54 53 52 51 50 49 46 44 43 41 38 36 34 32 32 31 29 28 27 27 25 22 20 17 16 15 14 14 13 13 14 13 14 15 15
61 61 60 60 59 58 57 56 55 54 53 52 50 49 47 45 44 42 40 37 34 33 31 30 28 27 26 25 25 23 21 18 16 14 13 12 12 11 10 10 11 11 12 13
60 60 59 58 58 56 55 54 53 52 51 50 48 46 45 43 41 40 39 36 34 32 30 28 27 25 24 24 23 21 19 17 14 13 12 11 10 9 8 8 8 8 9 10
60 58 57 56 55 54 52 51 49 48 47 46 45 44 42 40 39 37 35 34 33 31 30 28 26 24 22 22 21 20 18 16 14 12 11 10 8 7 7 6 5 6 6 7

GEFSNGP_500_meanwind_054.txt.gz
Wind_Speed
9 10 12 11 11 13 15 16 18 19 20 21 23 23 24 25 27 29 31 33 35 38 39 39 40 40 41 42 43 43 44 44 44 43 42 41 40 40 40 40 40 39 39 39
8 10 11 11 12 14 16 17 18 19 21 23 23 24 25 26 28 30 31 34 36 38 39 40 40 41 42 43 44 45 45 45 45 44 42 41 40 40 40 40 39 39 38 37
9 10 10 11 12 14 15 17 19 21 22 24 24 25 25 26 28 30 32 34 37 38 39 40 41 42 43 44 45 46 46 46 46 44 42 41 40 40 40 39 38 37 37 37
10 10 11 11 13 14 16 19 20 21 23 24 25 25 25 26 28 30 32 35 37 39 40 41 42 43 44 45 46 46 47 47 46 45 43 41 40 40 39 38 37 37 37 37
12 12 11 13 13 15 17 19 21 22 24 26 26 26 25 27 29 31 34 36 38 39 40 41 42 43 45 46 46 47 47 47 46 44 42 41 40 39 39 38 37 37 37 37
14 13 13 11 13 16 18 20 21 23 24 25 26 27 27 29 30 32 35 37 38 40 41 42 42 44 45 46 46 47 47 47 46 44 43 41 40 39 39 38 37 37 37 36
15 16 17 17 18 19 21 22 23 24 25 25 26 27 28 29 31 33 35 37 39 40 42 42 43 44 45 46 46 47 47 47 46 44 43 42 41 40 39 38 37 36 35 34
21 21 22 22 23 23 24 24 24 24 25 26 26 27 28 30 32 34 36 38 39 41 42 43 43 44 45 46 46 46 46 46 46 44 43 42 41 40 39 38 37 35 33 33
23 24 24 24 25 25 26 25 25 25 25 26 27 28 29 31 33 35 37 38 40 41 42 43 44 45 45 46 46 46 46 46 45 44 43 42 41 40 38 36 36 35 33 32
26 26 26 26 25 25 25 25 24 25 26 26 27 29 31 33 35 37 38 40 41 42 43 43 44 45 45 46 46 45 45 45 45 44 42 42 41 38 36 36 35 35 33 32
27 26 25 24 25 25 25 25 26 26 27 28 30 31 33 35 37 39 40 41 42 43 43 44 44 45 45 46 45 45 45 45 44 43 42 41 40 38 36 36 36 35 33 31
27 26 26 25 26 27 27 27 28 28 29 31 32 34 35 37 38 40 41 42 43 43 44 44 45 45 45 45 46 45 45 44 43 42 41 40 38 37 36 36 36 35 32 30
28 27 27 27 28 29 30 30 31 31 32 33 35 36 38 40 40 41 41 43 44 44 44 45 45 45 45 45 46 46 45 44 43 41 40 39 37 36 35 35 35 35 32 29
28 28 29 30 31 31 32 33 34 34 35 36 37 38 40 41 42 42 42 44 45 45 45 46 46 46 46 46 46 46 44 43 42 40 39 38 36 35 34 34 34 33 30 27
29 29 31 32 33 33 34 35 36 37 38 38 39 40 41 42 43 43 44 45 46 45 46 47 48 47 47 46 46 45 43 42 40 39 37 36 35 34 33 33 33 31 28 26
30 31 32 33 34 35 36 37 39 40 41 42 43 43 44 45 45 46 46 47 47 47 47 49 49 48 47 45 45 43 42 40 38 37 36 35 34 33 31 31 31 30 28 25
32 33 33 35 36 37 39 40 42 43 44 44 46 46 47 47 48 48 48 48 49 50 50 50 49 47 46 45 44 42 40 38 37 36 34 33 32 30 29 28 28 28 26 24
34 35 36 37 39 41 42 44 45 46 46 47 48 49 49 49 49 49 50 51 52 51 50 50 49 47 46 45 42 40 38 36 35 34 32 30 29 28 27 26 26 26 25 23
38 39 41 42 44 45 46 47 48 49 50 51 51 51 51 52 53 53 53 53 52 51 50 49 48 47 45 43 40 38 36 34 33 31 29 28 27 26 25 24 24 24 23 22
43 44 45 46 47 48 49 50 51 52 53 53 52 52 53 54 55 55 54 53 51 50 49 48 46 44 42 40 39 37 34 32 31 29 27 26 24 23 22 21 21 22 22 20
48 48 48 49 50 51 52 54 55 56 55 55 55 55 56 56 56 55 53 51 49 48 47 45 43 42 39 38 37 35 32 30 28 27 25 24 22 21 20 19 19 19 20 19
50 50 51 51 53 54 56 57 58 58 58 58 58 58 57 56 55 53 50 48 46 45 44 42 40 38 36 35 34 32 30 28 26 25 23 21 20 18 17 17 17 17 17 17
52 53 54 55 56 57 58 58 59 59 59 58 57 56 55 54 52 49 46 44 43 42 40 39 36 34 33 31 30 29 27 26 24 23 21 19 18 17 15 15 16 16 16 16
54 56 57 58 59 59 59 59 59 59 58 57 56 54 52 50 48 46 43 41 40 38 37 35 33 32 31 29 28 26 25 24 23 21 19 17 16 14 13 14 14 13 13 13
58 59 59 59 60 60 60 59 58 57 56 55 53 51 49 47 44 42 40 38 37 35 34 32 31 29 28 26 25 24 23 22 21 20 17 15 14 13 11 11 11 11 11 11
61 61 61 60 60 59 59 58 57 55 54 52 50 48 46 43 41 39 37 36 34 33 31 29 27 26 25 24 23 22 22 21 19 18 16 14 12 11 10 9 9 8 8 9
62 62 62 62 61 60 59 57 56 54 52 50 47 45 42 40 38 36 35 33 31 30 28 27 26 24 22 21 21 20 19 19 17 16 14 13 11 10 9 8 7 7 6 6

GEFSNGP_500_meanwind_060.txt.gz
Wind_Speed
12 12 12 13 13 14 13 12 12 12 13 15 17 18 19 20 21 21 21 23 24 26 27 29 31 33 35 37 38 39 39 40 41 42 42 43 43 43 43 42 41 40 39 39
12 12 12 12 12 13 12 13 13 14 16 18 19 20 21 21 22 22 22 24 25 26 28 31 33 35 37 38 39 40 40 41 42 43 43 44 44 44 44 43 42 41 40 39
12 13 13 12 12 12 12 13 15 16 18 19 21 21 22 22 22 22 23 24 26 28 30 32 34 37 38 39 40 41 41 42 43 43 44 44 45 45 44 44 43 42 41 40
12 13 13 11 12 11 12 13 15 17 19 21 22 22 22 22 23 23 24 26 27 29 31 34 36 38 39 40 41 41 42 43 43 44 44 45 45 45 45 44 43 42 41 40
13 12 11 11 12 12 13 14 16 18 20 21 22 22 22 23 23 24 26 27 28 30 33 35 37 38 40 41 41 42 43 44 44 44 45 46 46 46 45 44 43 42 41 40
14 14 11 10 12 13 14 14 17 19 21 22 22 23 23 24 25 26 27 28 30 32 34 36 38 39 40 41 42 43 43 44 45 45 46 46 47 46 45 44 43 42 41 41
16 16 13 14 14 14 16 17 18 20 21 22 23 24 24 25 26 27 28 30 31 34 36 37 39 40 40 42 43 43 44 45 46 47 47 47 47 46 45 44 43 42 41 40
19 18 17 17 18 18 19 20 21 22 23 24 25 25 26 27 28 29 30 32 33 35 37 38 39 40 41 42 44 45 46 46 47 47 48 47 46 46 45 43 42 41 40 39
21 20 20 21 21 22 22 23 24 25 26 26 26 27 27 28 29 30 32 33 35 37 38 40 40 41 42 43 45 46 47 48 48 48 48 47 46 45 44 43 41 41 40 39
25 24 24 24 24 25 26 26 26 27 28 28 28 29 29 30 31 32 34 35 37 38 40 41 42 42 44 45 46 47 49 49 49 49 48 47 46 45 43 41 40 40 39 38
28 27 28 26 26 27 27 28 28 29 29 30 30 31 31 32 33 34 35 37 38 39 41 42 43 44 46 47 48 49 50 50 50 48 47 46 45 44 42 40 39 39 38 37
30 29 30 28 28 29 29 29 29 30 31 31 32 32 33 34 34 35 37 38 40 41 42 43 44 46 48 49 50 51 51 50 49 47 46 44 44 42 41 39 39 38 37 36
32 32 32 31 31 31 31 31 32 33 33 33 33 34 35 35 35 37 39 40 41 42 43 45 47 48 50 50 51 52 51 50 48 46 45 43 42 40 38 37 37 37 36 35
33 34 34 34 33 33 33 34 34 35 36 35 35 36 37 37 37 39 41 41 42 44 45 47 50 51 51 51 52 52 51 49 48 46 43 41 40 39 37 36 35 35 34 33
34 35 36 36 36 36 36 37 37 37 38 38 38 39 40 40 41 42 42 43 45 46 48 50 51 51 52 52 52 51 50 48 46 44 41 39 38 37 36 35 34 33 32 31
36 37 38 39 39 40 40 40 40 40 40 40 41 42 44 45 44 44 45 46 48 50 50 51 53 53 54 53 52 51 50 47 44 41 39 37 36 35 34 33 32 32 30 29
38 39 40 41 42 42 42 42 42 42 42 43 44 46 48 48 47 47 48 50 51 52 52 53 54 54 54 54 53 51 48 45 41 39 37 35 34 33 32 31 30 30 29 27
41 41 42 43 43 43 43 43 44 45 45 46 47 49 50 51 51 52 52 53 54 53 53 54 55 56 55 53 51 48 45 42 39 37 35 33 32 31 30 29 29 28 27 26
42 42 43 43 43 44 45 45 46 48 49 51 52 53 54 54 55 54 55 55 54 53 54 56 56 55 53 50 47 44 42 39 37 34 32 31 30 29 28 27 27 26 25 24
45 45 45 46 47 48 48 49 50 51 53 54 55 56 56 56 56 57 57 57 56 56 56 55 53 51 49 47 44 42 39 37 34 32 30 29 28 27 25 25 25 24 24 23
47 47 48 49 50 51 52 54 55 55 56 57 59 59 60 60 59 59 59 58 57 56 55 53 51 49 47 44 42 39 37 34 31 29 28 27 26 24 23 23 22 22 22 21
49 50 51 52 53 54 56 57 58 59 60 60 60 61 61 61 60 59 58 58 56 55 53 50 48 46 44 42 39 36 34 31 28 27 26 24 23 22 21 20 20 20 20 19
52 53 54 55 56 57 58 59 60 60 61 61 61 61 61 60 60 59 57 55 54 52 50 48 45 43 41 38 35 33 31 29 26 25 24 22 21 20 19 18 18 18 17 17
56 57 58 58 59 59 60 60 60 60 60 60 60 60 59 58 57 56 55 53 51 48 46 43 41 39 37 35 33 31 29 26 24 22 21 20 19 17 16 16 15 15 14 14
58 59 59 60 60 60 60 61 60 60 59 59 58 57 56 55 54 52 50 48 46 43 41 39 37 36 34 32 30 29 26 23 22 20 18 18 17 15 14 14 13 13 12 12
59 59 60 60 60 61 60 60 60 59 59 58 56 55 54 52 51 48 46 44 41 39 36 35 33 32 30 28 27 25 24 22 20 19 17 16 15 14 13 12 11 11 10 10
59 60 60 60 60 60 60 59 59 58 57 56 54 53 51 49 47 44 42 40 37 35 33 31 30 28 26 25 24 22 20 19 18 17 16 15 14 12 11 10 10 9 8 8

GEFSNGP_500_meanwind_066.txt.gz
Wind_Speed
13 14 13 13 13 14 14 13 13 14 14 15 16 15 15 15 15 16 16 16 16 17 18 19 20 21 23 24 26 28 29 30 31 33 34 35 36 38 39 40 41 41 41 41
14 14 14 12 12 14 14 14 14 15 15 16 16 16 16 16 16 16 16 17 17 18 19 20 21 23 24 26 27 29 30 31 33 34 36 37 39 40 41 42 42 43 42 41
13 14 15 13 13 14 14 14 14 14 16 17 17 17 17 17 17 17 17 18 18 19 20 22 23 24 26 27 29 30 32 33 34 36 38 40 41 42 43 43 44 43 42 41
13 14 15 12 15 14 13 13 14 15 16 17 18 18 18 18 18 18 18 19 20 21 22 23 24 26 27 28 30 31 33 34 36 38 40 41 43 44 44 44 44 43 42 41
15 14 14 14 16 14 13 13 16 16 18 19 19 19 19 19 19 19 19 20 21 22 23 25 26 27 28 30 31 33 34 36 37 39 41 43 44 45 45 45 44 43 42 41
17 15 13 15 18 16 15 14 18 19 20 21 20 20 20 20 20 20 21 21 22 23 24 26 27 29 30 32 33 34 35 37 38 40 43 44 45 46 46 45 44 43 42 41
19 18 17 21 18 17 16 19 21 21 22 22 22 21 21 22 22 22 23 23 24 25 26 28 29 30 32 33 34 35 36 38 40 42 44 46 47 47 46 45 43 42 41 40
22 20 21 24 21 21 22 22 23 23 24 23 23 23 23 23 24 25 26 26 27 28 29 31 32 33 34 35 36 37 37 39 42 44 46 48 48 47 46 44 43 41 39 38
25 25 26 25 25 24 24 23 24 25 25 25 25 26 26 26 26 27 28 29 30 32 33 34 35 35 36 37 38 39 40 42 43 46 47 48 48 47 46 45 42 40 38 37
26 26 27 27 26 26 25 25 25 26 26 27 27 28 29 29 29 30 30 32 33 34 35 36 37 38 38 40 41 42 44 44 45 47 48 48 48 47 46 44 41 40 38 36
28 28 28 29 28 28 28 28 28 29 29 30 30 31 31 32 32 32 33 34 35 37 39 39 40 41 42 42 43 45 46 47 47 48 48 48 48 47 45 43 41 39 37 35
30 30 30 30 30 30 30 31 31 31 32 32 33 33 33 33 34 35 36 37 38 40 41 42 43 44 45 45 46 47 48 48 49 49 49 49 48 47 45 42 40 38 36 35
30 31 31 32 32 32 32 33 33 33 33 33 34 34 34 35 36 37 39 40 41 43 44 45 46 47 46 48 49 49 49 50 50 49 49 49 48 46 43 41 38 37 36 34
30 31 32 33 33 33 33 33 34 34 34 34 35 36 36 37 38 40 41 43 45 46 47 48 49 50 51 50 51 52 51 50 49 49 49 48 47 45 42 38 36 36 35 33
30 32 33 34 34 35 35 35 35 36 36 37 37 38 39 40 42 43 44 46 48 49 50 51 52 52 52 52 53 53 52 50 48 48 48 47 45 43 39 37 34 34 33 32
32 33 35 36 36 37 37 37 38 39 39 40 41 42 43 44 45 47 48 50 51 52 53 54 54 53 53 53 53 52 50 49 48 48 47 45 43 40 37 35 33 32 32 31
35 36 37 38 38 39 40 40 41 41 42 43 44 45 46 47 49 50 51 52 53 54 54 55 55 54 54 54 53 51 50 49 48 47 46 43 40 37 35 33 31 30 30 29
38 38 39 40 41 42 42 43 44 44 45 46 47 49 50 51 52 53 54 54 55 55 56 56 56 56 55 54 53 51 50 48 47 45 43 39 37 35 33 32 30 29 28 28
40 41 41 42 43 44 45 46 47 48 49 50 50 51 52 53 54 54 55 56 56 56 57 57 57 56 55 54 53 51 49 47 45 43 40 37 34 32 31 29 28 27 26 26
42 43 44 45 46 47 48 49 49 50 50 51 52 53 54 55 55 56 56 57 57 57 57 57 56 55 53 52 51 49 47 44 42 39 36 34 32 30 28 27 26 25 24 24
44 45 45 46 47 48 50 50 51 52 53 54 55 55 56 56 56 57 57 57 57 57 56 55 55 53 51 50 48 46 43 41 38 36 33 31 29 27 26 25 24 23 22 21
45 46 47 48 50 51 52 53 54 55 55 56 56 57 57 57 57 57 57 57 56 56 55 53 52 50 48 46 44 42 39 37 35 32 30 28 26 25 24 22 21 20 19 19
48 49 50 51 52 53 54 54 55 55 56 56 56 57 57 57 57 56 56 55 55 54 53 51 49 47 45 43 41 38 35 33 31 29 28 26 24 23 22 20 19 18 17 17
51 52 52 53 54 54 54 54 54 55 55 55 55 56 56 55 55 55 55 54 53 52 50 48 46 44 42 40 38 35 33 31 29 27 25 24 22 21 20 18 17 16 15 15
52 52 53 53 53 53 54 54 53 53 53 53 53 53 53 54 53 53 52 51 49 48 46 44 42 40 38 36 33 31 30 29 27 25 23 22 20 19 18 16 15 14 14 13
51 51 52 52 52 52 52 52 51 51 50 49 48 49 49 49 49 48 47 46 44 42 40 39 37 35 33 31 29 27 25 24 23 22 21 20 19 17 16 15 13 13 12 12
49 50 50 50 49 49 49 48 47 46 45 45 44 44 44 43 43 42 41 39 37 36 35 33 31 30 27 26 24 23 21 20 19 19 18 16 16 15 14 13 12 12 12 11

GEFSNGP_500_meanwind_072.txt.gz
Wind_Speed
16 15 14 12 11 11 12 14 15 16 17 18 19 21 23 23 22 21 20 20 19 19 19 19 19 19 20 21 22 23 24 25 26 27 28 29 31 32 33 34 35 37 38 40
16 13 13 13 14 14 15 15 14 15 17 20 21 22 23 22 23 23 22 21 20 20 20 20 20 20 21 22 23 24 26 27 28 29 30 31 33 34 35 36 38 39 40 41
16 14 14 14 14 15 16 16 16 17 18 20 22 22 21 20 21 22 21 21 21 21 20 21 21 22 22 23 25 26 28 29 30 31 32 33 35 35 36 38 39 41 41 42
16 15 14 11 13 15 15 15 16 16 18 22 22 21 21 21 20 20 20 21 22 22 22 22 23 24 24 25 26 27 29 30 31 33 34 36 37 38 39 40 42 42 42 42
17 15 14 15 20 19 18 16 15 16 18 19 20 20 21 21 21 21 22 22 23 23 23 23 24 25 26 26 27 29 30 32 33 35 36 38 39 40 41 43 44 43 43 43
17 17 16 21 24 21 18 19 18 17 19 21 20 19 23 24 25 25 24 24 24 25 25 25 26 26 27 28 29 31 33 34 35 37 38 40 41 42 43 44 45 44 44 43
17 16 18 24 24 23 21 19 17 19 22 23 23 22 25 26 27 27 26 26 27 27 27 27 28 28 28 30 31 33 35 36 37 40 41 42 43 44 45 46 46 46 45 44
21 20 23 26 26 26 23 21 20 23 25 28 28 27 28 29 28 28 28 28 28 29 30 29 30 30 31 32 34 35 37 38 40 42 44 44 44 45 47 47 47 46 45 44
26 27 27 28 29 26 23 24 27 29 29 29 29 30 30 30 30 29 29 30 30 31 32 32 32 33 34 35 37 38 40 41 43 44 46 46 46 47 47 48 47 47 46 44
27 29 30 29 29 28 28 29 29 30 31 31 31 31 31 32 32 31 32 33 33 34 34 35 35 36 37 38 40 41 43 44 45 46 48 48 49 49 49 50 49 47 46 45
29 30 32 32 31 31 31 31 31 32 32 32 32 32 32 33 34 34 34 35 36 36 37 37 38 39 40 41 42 44 45 46 47 49 50 50 49 50 50 49 49 47 46 45
32 32 34 34 33 32 33 33 33 33 33 33 33 34 34 35 35 36 37 37 38 39 39 41 42 43 43 44 46 47 48 49 51 52 52 51 51 51 51 50 48 46 45 43
32 32 34 35 34 35 35 35 35 34 34 35 35 35 36 37 37 38 39 40 40 41 42 44 45 46 47 48 48 49 50 51 52 52 53 54 54 53 51 49 48 46 44 42
32 33 34 34 35 35 36 37 37 36 36 36 37 37 38 39 39 40 41 42 43 44 45 46 47 48 49 49 50 51 52 53 54 54 54 54 53 52 50 49 47 45 43 42
32 33 35 35 36 36 37 38 38 38 39 39 39 40 40 41 41 42 43 44 45 46 47 48 49 50 51 51 51 52 53 53 54 54 54 54 53 51 50 48 46 44 42 40
33 34 36 36 37 37 38 39 40 41 41 42 42 43 43 43 44 45 45 46 47 48 49 50 51 52 52 52 53 53 54 54 54 54 54 54 52 50 49 46 44 42 40 38
35 36 36 37 38 39 40 41 42 43 44 44 45 45 45 46 46 47 47 48 49 50 52 52 52 52 53 54 55 55 55 55 55 55 54 53 51 49 47 44 42 39 37 35
36 37 38 39 40 41 42 43 44 44 45 46 47 47 47 48 49 49 50 50 51 53 54 54 54 54 55 56 56 56 55 55 55 54 53 51 49 46 43 41 38 36 35 33
38 39 39 40 42 43 44 44 45 46 47 47 48 49 50 50 51 52 52 53 54 55 55 55 55 56 56 57 56 55 55 54 53 52 50 48 45 42 40 37 35 33 32 31
38 39 40 41 43 43 44 45 46 47 48 49 50 51 52 53 53 54 54 55 56 56 56 56 56 57 57 56 55 55 54 52 51 49 47 44 42 39 36 34 32 31 30 28
39 40 41 42 44 45 46 47 48 49 50 51 52 53 54 54 54 55 55 56 57 57 57 57 57 57 57 56 54 53 52 50 48 45 43 40 38 36 34 32 31 29 28 26
41 42 43 44 46 47 48 49 49 51 51 52 53 54 54 55 55 56 56 57 57 57 56 56 56 55 55 54 52 51 49 47 45 42 40 36 35 33 31 30 29 27 26 24
44 45 46 46 47 48 49 50 51 52 52 53 54 54 55 55 55 55 55 55 55 54 53 53 53 52 51 50 49 47 45 42 40 38 36 34 32 30 29 27 26 25 24 23
47 48 49 49 50 50 51 52 52 53 53 53 54 54 54 53 52 52 52 51 50 49 49 48 48 47 47 46 44 41 39 37 36 34 32 30 28 26 26 24 23 22 21 20
49 49 50 50 51 51 51 52 52 52 51 51 50 49 49 48 48 47 47 46 46 45 45 45 44 43 42 41 38 37 35 33 31 29 27 25 23 22 21 20 20 19 19 18
48 48 49 49 49 49 49 48 48 47 47 46 45 44 43 43 43 43 43 43 42 41 41 41 41 39 37 36 35 33 31 28 25 23 22 21 20 19 18 18 18 17 17 17
46 46 46 46 46 45 45 44 44 43 43 42 41 40 39 39 39 39 39 39 39 39 38 37 36 35 35 34 31 28 25 23 19 18 19 19 18 18 17 17 16 16 15 15

GEFSNGP_500_meanwind_078.txt.gz
Wind_Speed
19 18 18 17 15 16 17 16 18 16 16 15 15 15 13 13 13 12 11 10 10 10 10 11 11 12 13 14 16 17 18 19 20 21 23 24 25 26 27 28 29 30 31 32
18 18 18 17 16 17 18 18 19 18 17 16 16 16 14 14 14 13 12 12 11 11 12 13 13 14 15 16 17 19 20 21 22 24 25 26 27 28 29 30 31 32 33 34
19 19 19 17 17 19 20 20 20 20 19 19 18 17 16 16 15 14 13 13 12 13 14 14 15 16 17 18 19 21 22 24 25 26 27 28 29 30 31 32 33 34 35 35
20 20 20 16 18 20 21 21 21 22 21 21 20 19 18 16 14 13 14 14 14 15 16 17 18 18 19 20 22 23 25 26 27 28 29 30 31 32 33 34 34 35 36 36
22 21 19 17 18 21 21 22 23 24 25 24 21 20 19 16 13 14 15 16 17 17 18 19 20 21 22 23 24 26 27 28 29 30 31 32 33 34 34 35 36 37 37 38
23 23 22 19 21 22 23 24 25 26 24 24 22 21 19 17 16 17 18 19 19 19 20 21 23 24 24 25 27 28 29 30 31 32 33 34 35 35 36 37 38 38 39 40
25 25 25 23 22 23 24 24 26 25 24 24 23 21 20 19 19 20 20 21 21 22 22 24 25 26 27 28 29 31 32 33 33 34 35 37 37 37 38 39 40 41 41 41
26 26 25 25 22 23 24 24 24 24 25 23 20 20 21 21 21 21 21 23 24 25 26 26 27 28 30 31 32 33 34 35 36 36 37 38 39 40 40 41 41 42 42 42
26 26 25 22 22 24 23 22 21 21 21 20 19 20 22 23 23 24 25 26 26 27 28 29 30 31 32 33 34 34 35 36 38 38 39 40 41 42 42 43 44 44 44 44
28 27 25 24 24 24 23 21 20 20 20 20 20 21 22 24 25 25 26 27 28 29 30 31 33 34 35 35 36 36 37 38 40 41 42 43 44 44 45 45 45 45 46 46
27 27 25 25 24 24 22 20 21 20 21 21 22 23 24 25 26 28 28 29 30 31 33 34 35 36 37 38 38 39 40 41 42 43 44 45 46 46 46 46 47 47 47 47
28 28 27 27 26 25 24 23 23 23 23 24 25 25 26 27 28 29 30 31 32 34 35 36 37 38 39 40 40 42 42 43 44 45 46 47 47 47 47 48 48 48 48 48
27 27 27 28 27 27 25 24 24 26 27 27 27 27 28 28 29 30 31 32 34 35 36 38 39 40 41 41 43 44 45 46 46 47 48 48 49 49 49 49 50 50 50 49
27 27 27 28 28 28 28 27 27 27 28 28 29 29 30 31 31 32 33 35 36 37 38 40 41 42 43 44 45 46 47 48 48 49 50 49 50 51 51 51 51 51 50 50
26 26 27 28 29 29 29 29 29 29 30 30 31 32 33 34 34 35 36 37 38 40 41 42 43 44 45 46 47 48 49 49 50 50 51 52 53 53 54 54 53 52 51 50
25 26 26 26 28 29 29 30 30 31 32 33 34 35 36 37 37 38 39 40 41 42 43 44 45 46 47 48 49 50 51 51 52 53 54 54 54 54 54 54 53 52 50 49
26 26 26 27 28 29 30 31 32 33 35 36 37 38 38 39 40 41 41 42 44 45 45 46 47 48 49 49 50 51 52 53 53 54 55 55 55 55 54 54 52 51 49 47
26 26 26 27 29 30 31 32 34 35 37 38 38 39 40 41 42 43 44 45 46 47 47 48 48 49 50 51 52 53 54 55 55 55 55 56 55 55 55 53 51 49 46 44
27 27 28 29 30 32 33 34 36 38 39 40 41 42 43 44 45 46 46 47 48 48 49 50 50 51 52 53 54 55 55 55 55 56 56 56 55 54 53 50 47 45 42 40
30 31 32 33 34 35 36 38 39 40 41 42 43 44 45 46 47 48 48 49 50 51 51 52 52 53 54 54 54 55 55 55 54 54 53 52 50 49 47 45 42 39 37 35
32 34 35 35 36 38 39 41 42 43 44 45 46 47 48 48 49 50 50 51 51 52 52 52 53 53 53 53 53 52 52 51 51 50 48 47 45 43 42 39 37 35 33 32
35 36 37 38 40 42 43 44 45 46 47 48 49 49 49 50 50 50 51 51 51 51 51 51 50 50 50 49 49 49 48 48 46 45 43 42 41 39 36 33 31 30 29 27
39 41 42 43 44 45 46 47 48 49 49 49 49 50 49 49 50 50 50 49 49 49 48 47 47 46 46 45 45 45 44 43 42 41 39 38 36 34 31 28 26 25 23 23
44 45 45 46 47 48 49 49 49 49 49 49 49 49 48 48 48 47 47 46 46 45 44 44 43 43 42 42 42 41 40 39 38 37 35 33 31 28 25 23 21 20 19 19
46 46 47 48 48 49 49 49 48 48 48 47 47 46 46 45 44 43 43 42 42 42 41 40 40 39 39 39 38 38 37 36 35 33 30 28 26 23 20 18 17 16 17 17
46 46 47 47 47 47 46 46 46 45 45 44 43 43 42 41 40 40 39 39 38 38 37 37 37 37 37 36 35 34 33 31 29 26 24 22 19 17 15 13 12 14 14 14
45 45 45 45 44 43 43 42 42 41 41 40 39 39 38 37 37 36 36 35 35 35 35 34 34 34 33 32 31 30 27 24 23 21 19 16 14 12 11 10 10 10 10 10

GEFSNGP_500_meanwind_084.txt.gz
Wind_Speed
15 17 17 16 17 19 19 18 18 16 16 15 15 15 15 15 15 14 14 15 15 15 15 16 17 17 18 18 18 18 19 19 20 20 20 21 22 23 24 25 26 27 28 28
17 18 19 18 18 20 20 20 18 17 16 17 18 16 16 16 16 16 16 16 17 17 17 17 17 18 18 18 19 20 20 21 21 22 22 23 24 25 27 28 29 29 30 31
18 20 22 21 20 21 22 21 20 19 17 17 18 18 18 18 18 18 17 17 17 18 18 18 19 19 19 19 20 21 21 22 23 24 24 25 26 28 29 30 31 32 33 33
19 20 22 20 20 21 21 21 21 20 19 20 21 21 21 21 21 21 20 19 20 20 21 21 20 20 20 20 21 22 23 24 25 26 27 28 29 30 31 33 33 34 35 36
20 20 19 19 20 21 21 21 21 20 20 21 21 21 21 21 22 22 22 22 22 22 22 21 22 22 22 22 23 24 25 26 27 28 29 30 31 33 34 35 36 36 37 38
19 20 20 19 20 21 22 21 21 22 22 22 23 23 23 23 23 23 24 23 24 24 24 24 24 24 24 24 25 26 27 28 29 30 31 32 34 35 37 38 38 39 39 40
19 20 20 20 21 21 22 22 22 23 22 22 23 23 24 24 24 25 26 25 26 27 27 26 26 26 26 26 27 29 29 30 31 32 34 35 37 38 39 40 41 41 41 42
21 21 20 21 21 21 21 21 21 21 22 22 23 23 23 23 24 25 26 26 26 27 27 27 28 28 28 29 29 30 31 32 34 35 37 38 39 41 42 42 43 43 44 44
22 22 22 22 22 22 22 21 21 21 21 22 22 23 23 23 24 25 26 26 26 27 26 27 29 29 30 31 32 33 34 34 36 38 39 40 41 43 44 45 45 46 46 47
24 23 23 23 23 23 22 22 22 22 21 20 21 22 23 24 24 23 24 26 26 26 27 29 30 30 32 33 35 35 36 37 39 40 41 43 44 45 46 47 48 49 49 50
24 24 24 22 23 23 23 22 23 22 21 19 19 21 22 23 22 23 24 25 27 27 28 29 30 32 33 34 36 38 39 40 41 43 44 45 47 48 49 50 51 52 52 53
24 24 24 23 22 23 23 23 23 22 21 21 21 22 22 23 24 24 25 25 26 27 29 31 32 34 35 37 38 40 41 42 44 45 46 48 49 50 51 52 53 54 54 54
25 25 24 23 23 23 24 24 23 22 22 22 23 23 23 23 24 25 26 27 28 30 31 33 34 36 37 39 40 42 43 45 46 48 49 50 51 52 53 54 55 55 56 57
25 25 25 24 24 24 25 25 24 24 23 23 24 23 23 24 25 26 27 29 30 32 33 34 36 37 39 41 42 44 46 47 48 50 51 52 53 54 55 56 56 56 57 58
25 26 26 26 26 25 26 26 27 26 25 24 25 25 25 26 27 28 29 31 32 34 35 37 38 40 41 43 44 46 47 49 50 51 52 53 54 55 57 58 59 59 59 60
25 26 26 26 26 27 28 27 27 26 25 25 26 27 27 28 30 31 32 33 34 36 37 39 40 42 43 45 46 48 49 50 51 52 53 55 56 58 59 60 61 61 61 61
25 26 25 25 25 26 26 26 26 27 26 26 27 28 29 31 32 33 34 36 37 38 40 42 43 44 46 47 48 49 51 52 53 55 56 57 59 59 60 61 61 61 61 60
24 24 24 23 23 24 24 25 26 26 27 28 29 31 33 34 35 36 37 39 40 41 43 45 46 47 49 50 51 52 53 54 55 56 57 58 59 59 59 59 59 58 57 56
24 24 24 24 25 25 26 27 27 28 29 31 32 34 36 37 38 39 41 42 43 44 46 47 49 50 52 53 54 54 55 55 56 56 57 57 56 56 55 54 54 53 51 49
26 26 26 25 26 26 26 27 28 30 32 33 35 36 38 39 41 43 44 46 47 48 49 50 51 52 52 53 53 54 54 54 54 54 54 53 53 52 51 51 50 49 47 44
26 26 26 27 28 29 30 31 32 34 36 37 39 41 43 44 45 46 47 48 49 50 50 51 51 51 51 52 52 52 52 52 51 51 50 50 49 49 48 46 45 43 41 39
29 30 31 32 33 34 35 36 37 39 40 42 43 45 46 47 47 48 48 49 49 49 50 50 49 49 49 49 49 49 49 49 49 48 47 46 45 44 42 41 39 37 34 32
32 33 35 36 37 38 39 41 42 44 45 45 46 47 47 47 47 47 47 48 48 48 48 47 47 47 47 47 47 47 47 46 45 44 43 41 40 39 37 35 33 31 28 26
35 36 38 39 40 41 43 44 45 46 47 47 48 48 47 47 47 47 46 46 45 45 44 44 44 45 45 45 44 43 43 42 40 39 38 37 36 34 32 30 28 26 24 21
38 40 41 42 44 46 47 47 48 47 47 47 46 46 46 45 45 44 44 43 42 42 42 42 42 42 41 40 39 38 37 36 34 33 32 31 30 28 26 23 21 20 18 17
42 43 44 45 45 46 46 46 45 45 44 44 43 42 42 42 41 41 40 39 39 39 39 39 38 37 36 35 34 33 32 31 30 29 27 25 24 22 20 19 18 17 15 13
42 42 43 43 43 43 43 42 42 41 41 40 40 39 38 38 38 37 37 37 36 36 36 35 34 33 32 31 30 29 28 26 24 22 21 21 19 18 17 17 15 13 10 9